Regional Weather Roundup
Issued by NWS

Home | Current Version | Previous Version | Graphics & Text | Print | Product List | Glossary On
Versions: 1 2 3 4 5 6 7 8 9 10 11 12 13 14 15 16 17 18 19 20 21 22 23 24 25 26 27 28 29 30 31 32 33 34 35 36 37 38 39 40 41 42 43 44 45 46 47 48 49 50
794
ASUS45 KTFX 061610
RWRMT
MONTANA REGIONAL WEATHER ROUNDUP
NATIONAL WEATHER SERVICE GREAT FALLS MT
1000 AM MDT FRI MAY 06 2016

NOTE: "FAIR" INDICATES FEW OR NO CLOUDS BELOW 12000 FEET WITH NO
SIGNIFICANT WEATHER AND/OR OBSTRUCTIONS TO VISIBILITY.

MTZ001>007-043-061700-
WEST OF THE DIVIDE

CITY           SKY/WX    TMP DP  RH WIND       PRES   REMARKS
KALISPELL      CLOUDY    60  42  51 NE21G28   30.18R
MISSOULA       PTSUNNY   60  42  51 E24G31    30.13S
BUTTE          CLOUDY    49  41  74 W6        30.18S
MULLAN PASS    FOG       43  43 100 VRB5        N/A  VSB<1/4
ANACONDA         N/A     52  43  71 N15G21    30.17F
DEER LODGE       N/A     48  43  81 N16G23    30.19F
EUREKA           N/A     59  43  55 CALM      30.21R
HAMILTON         N/A     57  43  58 N7        30.10S
LIBBY            N/A     57  46  67 CALM      30.19R
$$

MTZ008-052>055-061700-
SOUTHWEST MONTANA

CITY           SKY/WX    TMP DP  RH WIND       PRES   REMARKS
BOZEMAN        CLOUDY    60  42  51 VRB7      30.14R
DILLON         CLOUDY    55  40  56 NE26      30.11S
ENNIS          SUNNY     54  41  62 N22G31    30.15F
THREE FORKS      N/A     60  26  27 N13       30.13S
TWIN BRIDGES     N/A     58  39  49 N28       30.06F
$$

MTZ009-010-012-014-046-048-049-054-061700-
EAST SLOPES AND CENTRAL MONTANA

CITY           SKY/WX    TMP DP  RH WIND       PRES   REMARKS
CUT BANK       CLOUDY    48  41  76 N9        30.30R
GREAT FALLS    CLOUDY    48  44  86 N10       30.28S
MALMSTROM AFB  CLOUDY    48  43  83 N10       30.29R
HELENA         CLOUDY    51  43  74 N9        30.22F
CHOTEAU          N/A     46  43  87 N9        30.30S
CONRAD           N/A     49  49 100 NW7       30.29R
$$

MTZ011-013-016-021-045-047-050-051-061700-
NORTH CENTRAL MONTANA

CITY           SKY/WX    TMP DP  RH WIND       PRES   REMARKS
HAVRE          CLOUDY    52  41  66 NW5       30.27R
LEWISTOWN      CLOUDY    47  44  90 NW8       30.26R
N BAR RANCH    CLOUDY    52  45  76 NW16      30.25R
$$

MTZ017>020-022>027-061-062-061700-
NORTHEAST MONTANA

CITY           SKY/WX    TMP DP  RH WIND       PRES   REMARKS
GLASGOW        CLOUDY    56  45  66 N13       30.18R
JORDAN           N/A     52  45  77 N14       30.18R
SIDNEY         PTSUNNY   59  43  55 N18       30.09R
WOLF POINT     CLOUDY    56  45  66 N13       30.14F
POPLAR           N/A     54  45  71 N13       30.15S
SCOBEY           N/A     56  35  45 N18       30.13R
$$

MTZ028>42-056>058-061700-
SOUTHCENTRAL AND SOUTHEAST MONTANA

CITY           SKY/WX    TMP DP  RH WIND       PRES   REMARKS
BAKER          SUNNY     64  43  46 N24       30.08R
BILLINGS       CLOUDY    57  42  57 NE13      30.21R HAZE
LIVINGSTON     CLOUDY    55  41  59 E22G29    30.17S HAZE
MILES CITY     CLOUDY    66  41  40 N22       30.10R
FORSYTH          N/A     61  43  51 NW9       30.14R
LAUREL           N/A     57  40  53 N8        30.18R
ROUNDUP          N/A     54  42  63 N13       30.12R
$$

REGIONAL REPORTS...DAKOTAS

CITY           SKY/WX    TMP DP  RH WIND       PRES   REMARKS
WILLISTON      PTSUNNY   59  43  55 N17       30.08R
MINOT          SUNNY     71  41  33 N23G31    29.98R
DICKINSON      SUNNY     64  45  49 N20G26    29.99R
BEACH            N/A     59  43  55 N18G24    30.10R
CROSBY           N/A     57  43  58 N21       30.09S
TIOGA            N/A     61  43  51 N21G26    30.10R
WATFORD CITY     N/A     63  45  51 N18       30.05S
BISMARCK       SUNNY     71  49  45 N22G29    29.92R
GRAND FORKS    CLOUDY    63  43  48 N22G35    29.78S
FARGO          MOSUNNY   81  50  33 NW8       29.75R
BUFFALO SD       N/A     69  46  43 N24G31    29.94R
RAPID CITY     CLOUDY    77  48  35 N16       29.92R
$$

REGIONAL REPORTS...WYOMING/IDAHO/WASHINGTON

CITY           SKY/WX    TMP DP  RH WIND       PRES   REMARKS
GILLETTE       CLOUDY    62  44  51 N25G32    30.06R
SHERIDAN       CLOUDY    58  44  60 NW22      30.16R HAZE
BUFFALO WY     CLOUDY    58  42  55 N30G45    30.13R HAZE
CODY           CLOUDY    55  37  50 N24G33    30.15S
YELLOWSTONE LA   N/A     50  33  52 VRB3      30.19R
IDAHO FALLS    CLOUDY    66  42  41 NE16G26   29.92F
SALMON         CLOUDY    57  43  58 NE7       30.03R
BOISE          CLOUDY    59  51  75 SW5       29.81F
SPOKANE        PTSUNNY   64  48  56 NE14      30.05R
$$

REGIONAL REPORTS...ALBERTA

CITY           SKY/WX    TMP DP  RH WIND       PRES   REMARKS
EDMONTON       MOSUNNY   55  27  33 S5        30.24S
CALGARY        MOSUNNY   55  37  50 SW8       30.28F
LETHBRIDGE     MOSUNNY   57  36  44 SW2       30.29S
MEDICINE HAT   PTSUNNY   57  41  54 VRB5      30.27S
WATERTON GATE    N/A     48  41  76 S1          N/A
MILK RIVER       N/A     50  43  76 N5          N/A
ONEFOUR          N/A     54  36  50 N12         N/A
$$

REGIONAL REPORTS...SASKATCHEWAN

CITY           SKY/WX    TMP DP  RH WIND       PRES   REMARKS
SWIFT CURRENT  SUNNY     55  36  47 NW10      30.21S
REGINA         PTSUNNY   59  34  38 N14       30.14S
SASKATOON      CLOUDY    61  36  39 NW18G25   30.14S
CYPRESS HILLS    N/A     50  34  53 N7          N/A
VAL MARIE        N/A     55  34  44 N18G24      N/A
ROCKGLEN         N/A     54  37  54 N17G23      N/A
ASSINIBOIA       N/A     55  30  38 S2          N/A
$$




USA.gov is the U.S. government's official web portal to all federal, state and local government web resources and services.